Hourly Weather Roundup
Issued by NWS Central Illinois

Home | Current Version | Previous Version | Text Only | Print | Product List | Glossary On
Versions: 1 2 3 4 5 6 7 8 9 10 11 12 13 14 15 16 17 18 19 20 21 22 23 24 25 26 27 28 29 30 31 32 33 34 35 36 37 38 39 40 41 42 43 44 45 46 47 48 49 50
000
NZUS43 KILX 100210
HWRILX

AREA WEATHER ROUNDUP
NATIONAL WEATHER SERVICE, LINCOLN IL
800 PM CST TUE FEB 09 2016


CITY           SKY/WX    TMP DP  RH WIND       PRES   REMARKS
BLOOMINGTON    FLURRIES  15   8  73 NW18      30.01S WCI  -2
CHAMPAIGN      FLURRIES  16  10  77 NW14G25   30.00R WCI   2
DANVILLE       FLURRIES  16  12  84 W9        29.95S WCI   5
DECATUR        LGT SNOW  17  10  74 NW14G24   30.03S WCI   3
EFFINGHAM      CLOUDY    19  13  77 W15       30.06F WCI   5
FLORA          LGT SNOW  21  14  76 NW13G18   30.08S WCI   8
GALESBURG      CLEAR     12   7  79 NW15G21   30.07S WCI  -4
JACKSONVILLE   CLEAR     17   8  66 NW12      30.09R WCI   4
LACON          CLOUDY    15   6  68 NW18G28   30.03S WCI  -2
LAWRENCEVILLE  FLURRIES  19  13  77 W17       30.05S WCI   4
LITCHFIELD     CLEAR     15   8  72 NW8       30.07S WCI   4
$$


CITY           SKY/WX    TMP DP  RH WIND       PRES   REMARKS
LINCOLN        CLOUDY    17   9  68 NW10G21   30.05S WCI   5
MACOMB         CLEAR     14   8  75 NW18G25   30.11S WCI  -3
MATTOON        CLOUDY    16   9  74 NW20      30.01S WCI  -1
MT CARMEL AP   CLOUDY    21  12  68 W13       30.05S WCI   9
OLNEY-NOBLE AP CLOUDY    19  12  73 NW18G25   30.06S WCI   4
PARIS          CLOUDY    17  12  78 NW17      30.01S WCI   2
PEORIA         CLOUDY    15   3  59 NW14G22   30.06R WCI   0
PONTIAC        CLOUDY    17  10  75 NW12      30.00S WCI   4
RANTOUL        LGT SNOW  18  12  78 NW18G25   29.98F WCI   2
ROBINSON       CLOUDY    18  11  73 NW16      30.05S WCI   4
SPRINGFIELD    CLOUDY    18   9  68 NW16G23   30.07R WCI   3
TAYLORVILLE    CLOUDY    18  10  73 NW16      30.06S WCI   3
$$

...REGIONAL REPORTS...


CITY           SKY/WX    TMP DP  RH WIND       PRES   REMARKS
CHICAGO O`HARE LGT SNOW  15   8  73 W13       29.94R WCI   1
KANKAKEE       FLURRIES  16  10  75 NW14      29.97S WCI   2
MOLINE         CLEAR     13   3  64 NW12G25   30.08R WCI  -1
MOUNT STERLING CLEAR     13   5  69 NW9       30.10R WCI   1
MOUNT VERNON   CLEAR     19   9  63 CALM      30.08S
PITTSFIELD     CLEAR     18   6  60 NW10      30.11R WCI   6
QUINCY         CLEAR     16   6  65 NW20G26   30.11R WCI  -1
ROCKFORD       MOCLDY    14   3  61 NW13      30.00S WCI   0
$$


CITY           SKY/WX    TMP DP  RH WIND       PRES   REMARKS
BURLINGTON     CLEAR     13   5  70 NW13G22   30.11R WCI  -2
CEDAR RAPIDS   CLEAR     11   5  77 NW16      30.09R WCI  -6
DES MOINES     CLEAR     17   7  64 N13       30.18S WCI   4
KIRKSVILLE     FLURRIES  18   3  52 NW17G35   30.16R WCI   3
OTTUMWA        CLOUDY    15   7  70 NW16      30.15S WCI  -1
ST LOUIS       PTCLDY    24  10  55 NW9       30.10S WCI  14
$$


CITY           SKY/WX    TMP DP  RH WIND       PRES   REMARKS
TERRE HAUTE    CLOUDY    18  10  71 NW10      30.00F WCI   6
EVANSVILLE     CLOUDY    21  13  71 W7        30.08R WCI  12
INDIANAPOLIS   FLURRIES  16   9  74 W15       29.94S WCI   1
LAFAYETTE      CLOUDY    16   9  74 W13       29.96R WCI   2
MADISON        CLOUDY    12   0  58 NW13G18   29.98R WCI  -3
MILWAUKEE      LGT SNOW  16  10  77 NW10      29.92R WCI   4
$$





USA.gov is the U.S. government's official web portal to all federal, state and local government web resources and services.